This demonstration page uses our WeatherBlox Daily Observations layout. Learn more.

Left ArrowRight Arrow

Hourly Observations for November 4, 2015

Temp ( °F °C ) Dew Point ( °F °C ) Humidity (%) Winds ( mph kmh ) Pressure ( in mb ) Visibility ( mi km ) Precip ( " mm )
12:51 am 00:51 Mostly Clear 56 13.3 47 8.3 72 72 W 3 6 29.73 1007 10 16.0934 N/A
1:51 am 01:51 Clear 56 13.3 47 8.3 72 72 NNW 10 17 29.72 1007 10 16.0934 N/A
2:51 am 02:51 Clear 53 11.7 45 7.2 74 74 N N/A 29.74 1007 10 16.0934 N/A
3:51 am 03:51 Clear 57 13.9 43 6.1 60 60 S 9 15 29.73 1007 10 16.0934 N/A
4:51 am 04:51 Mostly Clear 59 15 41 5 51 51 WSW 8 13 29.72 1006 10 16.0934 N/A
5:51 am 05:51 Mostly Cloudy 53 11.7 45 7.2 74 74 W 13 20 29.77 1008 10 16.0934 N/A
6:51 am 06:51 Mostly Cloudy with Light Rain 52 11.1 48 8.9 86 86 WSW 10 17 29.79 1009 10 16.0934 N/A
7:51 am 07:51 Mostly Cloudy with Light Rain 54 12.2 49 9.4 83 83 NW 13 20 29.82 1010 10 16.0934 N/A
8:19 am 08:19 Mostly Cloudy with Light Rain 57 13.9 49 9.4 74 74 NW 15 24 29.85 1011 10 16.0934 N/A
8:27 am 08:27 Mostly Cloudy 57 13.9 49 9.4 74 74 NW 13 20 29.85 1011 10 16.0934 N/A
8:51 am 08:51 Mostly Cloudy 59 15 47 8.3 64 64 NW 13 20 29.83 1010 10 16.0934 N/A
9:51 am 09:51 Mostly Cloudy 58 14.4 47 8.3 67 67 NW 14 22 29.85 1011 10 16.0934 N/A
10:51 am 10:51 Mostly Cloudy with Light Rain 60 15.6 47 8.3 62 62 WNW 13 20 29.83 1010 10 16.0934 N/A
11:51 am 11:51 Mostly Cloudy 61 16.1 42 5.6 50 50 W 8 13 29.83 1010 10 16.0934 N/A
12:51 pm 12:51 Mostly Sunny 64 17.8 42 5.6 45 45 NW 17 28 29.8 1009 10 16.0934 N/A
1:51 pm 13:51 Sunny 63 17.2 41 5 45 45 WNW 22 35 29.8 1009 10 16.0934 N/A
2:51 pm 14:51 Partly Cloudy 61 16.1 40 4.4 46 46 WNW 21 33 29.83 1010 10 16.0934 N/A
3:51 pm 15:51 Sunny 61 16.1 39 3.9 44 44 NNW 14 22 29.83 1010 10 16.0934 N/A
4:51 pm 16:51 Partly Cloudy 59 15 38 3.3 46 46 NNW 7 11 29.84 1011 10 16.0934 N/A
5:51 pm 17:51 Clear 54 12.2 40 4.4 59 59 NW 6 9 29.88 1012 10 16.0934 N/A
6:51 pm 18:51 Cloudy 55 12.8 40 4.4 57 57 WNW 6 9 29.9 1013 10 16.0934 N/A
7:51 pm 19:51 Cloudy 56 13.3 40 4.4 55 55 NW 8 13 29.91 1013 10 16.0934 N/A
8:51 pm 20:51 Cloudy 55 12.8 41 5 59 59 NW 6 9 29.91 1013 10 16.0934 N/A
9:51 pm 21:51 Mostly Cloudy 55 12.8 37 2.8 51 51 NW 10 17 29.92 1013 10 16.0934 N/A
10:51 pm 22:51 Clear 53 11.7 37 2.8 55 55 WNW 9 15 29.93 1013 10 16.0934 N/A
11:51 pm 23:51 Clear 51 10.6 37 2.8 59 59 NNW 10 17 29.93 1014 10 16.0934 N/A

Powered by AerisWeather